Wind_Speed
27 27 27 27 28 29 29 30 30 31 32 32 32 32 32 33 34 34 34 34 34 35 36 37 38 39 40 41 42 43 44 44 45 46 46 46 46 47 47 47 47 46 46 46
28 28 28 28 29 30 31 31 31 32 33 34 34 33 33 34 34 34 34 35 35 35 36 37 38 39 40 42 43 43 44 45 45 46 46 47 47 47 48 49 49 48 48 48
29 29 29 30 31 31 31 32 33 33 34 35 36 34 33 34 34 35 35 36 36 36 35 37 38 40 41 42 43 44 45 45 46 46 47 47 48 49 49 49 50 50 50 50
30 30 31 31 32 33 33 33 34 34 35 36 36 37 33 34 34 34 35 36 36 36 36 37 38 40 41 42 43 44 45 46 46 47 47 47 48 49 49 49 49 50 51 51
31 31 32 32 32 33 33 34 34 36 37 37 36 38 34 33 33 33 34 36 37 37 37 38 38 39 40 42 43 43 43 44 45 46 46 47 47 48 48 49 49 51 52 52
32 32 32 32 32 32 33 34 34 35 36 38 36 38 36 33 32 32 33 34 36 37 38 39 39 40 41 42 43 43 44 45 45 46 46 47 48 48 48 49 50 51 51 52
31 31 31 31 31 31 32 32 34 35 36 37 35 36 35 33 33 33 34 34 36 37 37 38 39 40 41 42 42 43 44 45 46 46 46 47 48 48 48 49 50 51 51 52
32 31 31 30 30 31 32 32 33 36 37 36 35 36 34 33 34 34 34 35 36 36 37 38 39 40 41 42 42 43 44 45 46 46 47 47 48 49 49 50 51 51 52 53
32 32 30 30 30 31 31 32 33 35 37 38 37 37 35 33 34 34 35 35 36 37 38 39 40 41 41 42 43 44 44 45 46 46 47 48 48 49 49 50 51 51 52 52
33 33 31 30 30 30 31 32 33 35 38 39 39 37 35 34 34 35 35 35 36 36 37 38 39 41 42 43 43 44 45 45 46 47 47 48 48 49 49 50 51 52 52 53
34 34 33 31 31 31 32 32 33 35 37 38 39 37 35 35 35 35 36 36 37 38 38 38 39 41 42 43 43 44 45 45 46 46 47 48 49 50 50 50 50 52 53 54
34 34 33 33 32 32 33 33 33 35 37 38 40 37 35 35 36 36 37 37 38 38 39 39 39 40 41 42 43 44 44 45 46 46 47 48 48 49 50 51 51 52 53 54
34 35 35 35 34 34 34 34 35 36 37 38 38 37 35 34 35 36 37 37 37 38 38 39 39 40 41 42 43 43 44 45 46 47 48 48 49 49 50 50 51 53 53 54
35 35 35 36 35 35 34 34 35 37 38 38 37 36 34 34 35 35 36 37 37 38 39 40 40 41 41 42 43 44 44 45 46 47 48 48 48 49 50 50 51 52 53 54
35 35 35 35 35 36 35 35 36 37 38 39 37 36 34 34 36 36 37 38 39 40 40 41 42 42 42 43 43 44 44 45 46 46 47 48 48 49 50 51 51 52 53 53
34 36 36 36 35 36 37 37 37 37 37 38 38 37 35 35 36 37 37 38 39 40 41 41 42 42 43 43 44 44 45 46 46 46 47 47 48 49 50 50 51 52 53 53
33 35 36 36 36 38 38 37 37 37 37 37 38 37 37 37 37 37 38 39 39 40 40 41 41 42 43 43 44 44 45 45 46 46 47 47 47 48 49 49 50 51 52 53
33 34 35 36 37 38 37 36 36 36 35 36 36 36 38 38 38 39 41 41 41 41 41 41 42 42 43 43 44 44 44 45 45 45 45 46 46 47 47 48 49 50 51 52
33 34 36 37 39 39 37 37 36 37 35 35 37 38 38 38 39 39 40 41 41 42 43 43 43 43 43 43 43 44 44 44 45 45 46 46 46 46 47 48 48 49 50 52
33 35 36 38 39 40 38 37 37 38 37 36 37 38 38 38 39 38 40 41 42 43 43 43 43 43 43 43 43 43 44 44 45 45 46 46 46 46 47 48 48 49 49 51
34 36 37 39 40 41 39 39 39 39 38 37 37 37 37 38 38 39 40 41 42 42 43 43 43 43 43 43 44 44 44 45 45 46 46 46 46 46 47 47 48 48 49 50
37 38 39 40 42 41 41 40 40 40 39 38 38 38 38 39 39 40 40 40 41 41 42 43 43 44 44 45 45 45 45 45 46 46 46 47 47 47 47 48 48 48 48 49
39 40 40 41 41 41 41 41 41 41 40 39 39 39 40 40 40 40 40 40 41 42 42 43 43 43 44 45 45 45 45 46 46 47 47 47 47 47 47 47 48 48 49 49
40 40 41 42 41 42 42 42 42 41 40 40 40 40 41 41 40 40 41 41 41 42 42 43 43 43 44 44 45 45 46 47 47 47 47 47 47 47 48 48 48 49 49 50
40 41 42 42 41 41 40 41 41 41 41 41 41 41 41 41 40 41 41 40 41 41 41 41 42 42 43 44 45 46 46 47 47 47 47 47 47 47 48 48 48 49 49 49
39 39 41 41 41 41 40 39 40 40 40 41 41 41 40 41 41 41 41 41 40 40 41 41 42 42 43 44 45 46 46 46 46 46 46 46 46 46 47 47 48 48 48 49
Wind_Direction
283 282 282 281 279 278 276 275 274 273 272 271 271 269 266 264 262 260 259 258 258 257 256 256 255 255 256 256 257 257 257 257 256 256 256 256 255 256 256 256 256 255 254 254
284 283 283 280 279 279 278 277 276 274 273 273 272 269 267 266 263 261 260 259 260 260 258 256 256 256 257 258 258 259 259 258 258 257 257 257 257 256 257 257 257 256 256 255
286 285 282 281 280 279 279 278 277 275 274 274 274 272 269 267 266 263 261 261 262 261 260 258 257 258 258 259 259 259 259 259 259 259 259 260 259 258 258 258 258 258 258 257
286 286 284 282 281 280 279 279 278 277 276 276 276 275 270 270 269 267 265 264 263 262 261 262 261 261 261 261 261 261 260 259 259 259 260 260 259 259 258 258 257 257 258 258
288 287 285 283 283 282 281 280 279 278 277 277 277 276 275 272 271 270 268 267 265 264 264 265 264 263 262 262 262 261 261 260 259 259 260 260 260 259 259 258 258 258 258 258
289 288 287 286 284 283 283 281 279 278 278 277 278 278 278 275 273 270 270 269 268 267 267 267 266 265 263 263 262 261 261 260 260 261 261 260 260 260 259 259 259 259 259 258
289 289 289 288 286 284 283 282 282 280 279 279 280 279 279 277 275 273 271 271 270 269 269 267 266 265 265 264 263 263 262 262 262 262 262 262 261 261 260 260 260 260 260 260
292 292 291 290 288 286 284 282 282 283 282 280 280 280 279 277 277 276 274 272 270 269 268 268 267 267 267 266 265 264 263 262 262 263 263 263 262 262 261 261 261 261 261 261
295 294 292 290 288 287 286 283 282 283 283 282 281 280 279 279 277 276 275 274 272 271 269 269 268 268 268 268 267 266 265 263 263 263 264 263 263 263 262 262 261 260 260 260
293 291 289 288 286 285 285 285 284 283 285 285 283 281 282 281 278 276 276 275 274 273 272 271 269 269 269 269 269 269 267 266 264 264 264 264 264 263 263 262 262 262 261 261
290 289 288 286 285 287 286 285 285 285 285 286 285 284 283 282 281 280 278 277 276 275 274 273 272 270 270 270 269 269 269 268 267 266 266 265 265 265 264 263 263 263 263 262
290 289 288 288 288 287 286 285 285 284 285 285 285 285 284 283 281 280 278 277 277 277 275 274 273 272 271 270 270 270 269 269 268 268 267 267 266 266 265 265 265 264 263 263
290 290 290 289 289 289 288 287 285 285 284 284 284 287 287 285 282 280 279 277 277 276 276 276 275 274 273 272 271 271 270 270 270 270 269 268 267 266 265 266 266 265 264 264
289 289 289 290 290 291 290 288 286 285 284 285 286 287 286 285 283 281 279 278 277 276 277 277 277 276 274 274 273 272 272 272 272 271 271 269 268 266 265 265 266 266 266 265
290 289 289 291 290 289 289 289 288 286 286 286 288 287 286 284 284 282 279 278 277 277 276 277 278 278 276 275 275 274 273 273 273 273 272 270 269 268 267 266 266 266 266 266
291 291 291 291 292 291 290 289 289 288 287 286 286 286 286 284 283 281 281 280 279 279 278 278 279 278 278 277 277 275 275 274 274 273 272 271 269 268 268 267 267 267 266 266
292 293 293 292 291 291 291 292 291 290 289 288 287 287 284 283 282 281 281 281 280 280 280 280 280 279 279 279 278 276 275 274 274 273 272 271 270 269 269 268 268 267 266 266
292 294 294 294 294 292 295 294 292 291 290 289 289 287 286 284 282 281 281 281 281 281 281 282 281 281 281 279 278 277 276 275 274 273 272 271 271 271 270 270 270 269 268 267
292 293 294 295 295 296 296 296 295 293 292 290 290 289 286 284 282 281 282 282 282 282 282 282 281 282 281 280 279 277 276 275 275 274 273 272 272 272 272 272 272 271 270 268
291 292 293 294 294 296 298 296 295 293 292 291 290 289 288 286 284 283 282 283 284 284 283 282 282 282 281 280 279 278 277 276 275 275 274 273 273 274 274 274 273 272 271 270
292 292 292 293 293 295 296 296 295 294 294 292 291 290 290 289 288 286 286 286 285 285 284 284 283 282 281 281 280 279 278 277 277 276 275 274 273 274 274 274 274 273 272 271
292 292 293 293 293 294 295 293 293 294 293 292 291 291 291 290 290 289 288 288 287 286 285 285 284 283 282 281 281 280 279 278 277 277 276 275 274 274 274 274 275 275 274 272
292 293 293 292 293 293 292 291 292 293 292 292 292 292 292 291 290 289 288 288 287 286 286 286 285 284 283 282 281 280 279 279 279 277 277 275 275 275 274 274 275 275 275 274
294 293 292 292 293 292 291 290 291 292 292 292 291 291 291 291 290 289 288 288 288 288 288 287 286 285 284 283 282 281 280 280 279 278 277 275 274 274 274 275 275 276 276 275
294 295 295 294 294 293 292 291 291 291 291 290 290 290 290 290 289 289 289 290 290 290 290 289 288 286 286 285 284 283 282 281 279 278 277 275 274 274 274 275 276 276 276 276
295 296 295 296 295 294 292 291 291 291 291 291 290 289 289 290 290 290 290 291 291 291 290 290 289 289 288 288 286 285 284 282 280 278 277 275 275 275 275 276 277 277 277 277
Height
5699 5698 5697 5696 5694 5693 5692 5691 5691 5691 5690 5689 5689 5690 5691 5690 5691 5692 5693 5694 5695 5696 5697 5698 5699 5700 5701 5702 5704 5705 5706 5707 5708 5710 5711 5712 5714 5715 5716 5718 5719 5721 5723 5725
5693 5691 5690 5688 5686 5685 5684 5683 5683 5683 5681 5680 5681 5682 5682 5682 5682 5684 5684 5685 5686 5686 5687 5688 5689 5690 5691 5692 5693 5694 5695 5696 5697 5698 5699 5701 5702 5703 5705 5706 5707 5709 5711 5713
5685 5685 5682 5681 5679 5677 5676 5675 5675 5673 5672 5671 5671 5672 5674 5673 5673 5674 5675 5675 5676 5677 5677 5678 5679 5680 5680 5681 5682 5683 5684 5685 5685 5686 5687 5689 5690 5691 5693 5694 5695 5697 5698 5700
5677 5676 5675 5673 5671 5669 5668 5667 5666 5664 5663 5662 5662 5660 5665 5664 5664 5664 5665 5665 5665 5666 5667 5667 5668 5669 5669 5670 5670 5671 5672 5672 5673 5674 5675 5676 5677 5679 5681 5682 5682 5684 5686 5687
5669 5668 5666 5664 5663 5661 5659 5658 5657 5655 5653 5652 5652 5650 5654 5655 5655 5655 5655 5654 5654 5655 5656 5656 5657 5657 5658 5658 5659 5659 5659 5660 5661 5662 5663 5664 5665 5666 5668 5669 5670 5671 5673 5674
5661 5659 5657 5656 5654 5652 5650 5649 5647 5645 5644 5643 5644 5641 5643 5645 5645 5645 5645 5644 5644 5645 5645 5645 5645 5646 5646 5647 5647 5647 5648 5648 5649 5649 5650 5651 5652 5654 5655 5656 5657 5658 5659 5661
5653 5651 5649 5648 5646 5644 5642 5641 5638 5635 5633 5634 5634 5631 5634 5635 5634 5634 5635 5635 5634 5634 5634 5634 5634 5634 5635 5635 5635 5636 5636 5637 5637 5637 5638 5639 5639 5640 5642 5643 5644 5645 5646 5648
5644 5643 5642 5639 5638 5636 5634 5632 5630 5627 5624 5624 5623 5622 5626 5625 5624 5623 5624 5624 5624 5624 5624 5623 5623 5623 5623 5623 5624 5624 5624 5624 5625 5625 5626 5626 5626 5627 5628 5630 5631 5632 5633 5635
5636 5635 5633 5631 5629 5628 5625 5624 5622 5619 5615 5614 5614 5614 5616 5616 5615 5614 5613 5613 5612 5612 5612 5612 5612 5612 5612 5612 5612 5612 5612 5612 5612 5613 5613 5613 5614 5614 5615 5616 5617 5618 5620 5621
5627 5625 5625 5623 5621 5619 5618 5615 5613 5609 5605 5603 5604 5604 5606 5606 5605 5604 5603 5602 5602 5601 5601 5600 5600 5600 5600 5600 5600 5600 5600 5600 5600 5600 5600 5600 5601 5601 5602 5602 5603 5604 5605 5606
5619 5617 5616 5614 5612 5611 5609 5607 5603 5600 5598 5595 5593 5598 5597 5596 5595 5594 5593 5592 5591 5590 5590 5589 5589 5589 5588 5588 5587 5587 5587 5587 5587 5587 5587 5587 5587 5588 5588 5589 5589 5590 5591 5591
5610 5608 5606 5605 5604 5601 5599 5598 5595 5593 5590 5586 5584 5589 5588 5587 5585 5583 5582 5581 5580 5579 5578 5578 5577 5577 5576 5576 5575 5575 5575 5574 5574 5574 5574 5574 5574 5574 5575 5575 5575 5576 5576 5577
5601 5599 5597 5596 5597 5594 5591 5589 5586 5583 5581 5577 5575 5579 5578 5577 5575 5573 5572 5571 5569 5569 5568 5566 5566 5565 5564 5563 5563 5562 5562 5561 5561 5561 5560 5560 5560 5560 5560 5561 5561 5561 5562 5562
5592 5590 5589 5588 5585 5583 5581 5580 5577 5574 5571 5569 5568 5569 5569 5566 5564 5563 5561 5559 5558 5558 5557 5556 5555 5553 5552 5551 5550 5549 5549 5548 5547 5547 5546 5546 5546 5546 5546 5546 5546 5546 5546 5547
5583 5582 5580 5578 5576 5573 5572 5570 5567 5564 5562 5560 5560 5558 5559 5556 5554 5552 5550 5548 5547 5547 5546 5544 5543 5541 5540 5539 5537 5536 5535 5534 5533 5533 5533 5532 5532 5532 5532 5532 5532 5531 5531 5531
5575 5573 5571 5570 5567 5564 5562 5560 5558 5556 5553 5551 5549 5549 5549 5546 5543 5542 5540 5538 5536 5535 5534 5532 5531 5529 5527 5526 5525 5523 5522 5521 5520 5519 5519 5518 5517 5517 5517 5517 5517 5516 5516 5516
5567 5565 5562 5560 5558 5554 5552 5552 5549 5547 5545 5542 5539 5540 5537 5535 5533 5531 5529 5527 5525 5524 5522 5520 5519 5517 5515 5513 5511 5510 5509 5507 5506 5505 5505 5504 5504 5503 5502 5502 5502 5501 5501 5501
5560 5556 5553 5550 5549 5544 5547 5543 5540 5537 5535 5532 5530 5528 5526 5524 5522 5520 5518 5516 5514 5512 5510 5508 5506 5504 5502 5500 5498 5497 5495 5494 5493 5492 5491 5490 5490 5489 5488 5488 5487 5487 5486 5486
5551 5548 5544 5541 5537 5536 5537 5534 5530 5527 5526 5523 5520 5517 5515 5512 5510 5509 5506 5504 5502 5500 5498 5496 5493 5491 5489 5487 5485 5483 5482 5481 5480 5478 5477 5477 5476 5476 5475 5474 5473 5472 5472 5471
5543 5540 5537 5532 5528 5526 5529 5525 5520 5517 5516 5514 5510 5507 5504 5501 5499 5499 5495 5492 5490 5487 5485 5483 5480 5478 5476 5474 5472 5470 5469 5467 5466 5465 5464 5463 5462 5461 5461 5460 5459 5458 5457 5456
5535 5531 5528 5524 5519 5517 5518 5514 5510 5508 5507 5503 5499 5496 5493 5490 5488 5486 5483 5480 5477 5475 5472 5470 5468 5465 5463 5461 5459 5457 5455 5454 5453 5451 5450 5449 5448 5447 5446 5445 5444 5443 5442 5441
5525 5522 5519 5515 5510 5511 5507 5503 5500 5497 5494 5491 5488 5485 5482 5479 5476 5474 5471 5468 5465 5463 5460 5457 5455 5452 5450 5447 5446 5444 5442 5440 5439 5437 5436 5434 5433 5433 5432 5431 5429 5428 5427 5426
5516 5513 5509 5506 5504 5500 5495 5492 5489 5486 5484 5480 5477 5475 5472 5468 5465 5462 5460 5456 5453 5451 5448 5445 5442 5440 5437 5434 5432 5430 5428 5426 5424 5422 5421 5420 5419 5418 5417 5416 5414 5413 5411 5410
5506 5502 5498 5495 5493 5489 5485 5481 5478 5475 5472 5469 5466 5463 5460 5457 5454 5451 5448 5445 5442 5438 5435 5432 5429 5427 5424 5421 5418 5416 5414 5412 5409 5407 5406 5404 5403 5402 5401 5400 5399 5398 5396 5394
5496 5491 5487 5484 5482 5478 5474 5471 5467 5464 5461 5458 5455 5452 5449 5445 5443 5439 5436 5433 5430 5426 5423 5420 5417 5414 5411 5408 5405 5402 5399 5397 5395 5393 5391 5389 5388 5387 5386 5385 5384 5382 5381 5379
5486 5481 5477 5473 5470 5466 5463 5460 5456 5453 5450 5447 5444 5440 5437 5434 5431 5428 5425 5421 5418 5415 5411 5408 5405 5401 5398 5394 5391 5388 5385 5382 5380 5378 5376 5374 5373 5372 5371 5370 5369 5366 5365 5364